パンスターズ彗星

C/2015 X5 ( PanSTARRS )

English version
Home page
Updated on May 20, 2019

---------------------------------------------------------------------

・ プロフィール

発見日 2015年12月6日
発見光度 21.3等
発見者 Pan-STARRS 1 telescope (Haleakala)

・ 写真集

・ 軌道要素

Epoch 2018 Jan. 2.0 TT = JDT 2458120.5
T 2017 Dec. 31.02993 TT                                 MPCW
q   6.8017320            (2000.0)            P               Q
z  -0.0004888      Peri.   27.75238     -0.25135922     +0.67029045
 +/-0.0000006      Node   122.31452     +0.66183191     -0.40736074
e   1.0033249      Incl.  124.29092     +0.70625566     +0.62029666
From 197 observations 2015 Dec. 6-2019 Mar. 21, mean residual 0".4.

・ 光度変化

        m1 = 2.3 + 5 logΔ + 15.0 log r

---------------------------------------------------------------------

軌道要素はM.P.E.C. 2019-J142に掲載されたものです。
光度グラフはComet for Windowsで作成したものです。

---------------------------------------------------------------------

Copyright(C) Seiichi Yoshida (comet@aerith.net). All rights reserved.